Total_Precipitation_Accumulation
0.00 0.00 0.01 0.01 0.01 0.01 0.02 0.04 0.12 0.19 0.12 0.14 0.27 0.43 0.65 0.79 0.91 0.97 1.16 1.09 1.16 1.28 1.42 1.72 1.96 2.16 2.51 2.84 3.26 3.78 4.22 4.15 3.84 3.44 3.02 2.74 2.38 2.13 1.88 1.58 1.36 1.25 1.20 1.25
0.01 0.02 0.01 0.02 0.02 0.03 0.04 0.07 0.16 0.19 0.12 0.13 0.28 0.48 0.73 0.77 0.74 0.77 0.97 1.04 1.05 1.11 1.28 1.53 1.89 2.08 2.35 2.74 2.97 3.14 2.99 2.66 2.45 2.34 2.18 1.88 1.81 1.78 1.71 1.59 1.38 1.15 1.13 1.11
0.03 0.03 0.02 0.02 0.03 0.04 0.06 0.07 0.13 0.18 0.20 0.21 0.31 0.61 0.81 0.79 0.69 0.66 0.69 0.78 0.82 0.92 1.09 1.33 1.71 1.87 1.91 2.16 2.25 2.11 1.75 1.42 1.32 1.29 1.20 1.32 1.50 1.61 1.63 1.64 1.55 1.35 1.27 1.23
0.02 0.02 0.03 0.03 0.06 0.05 0.09 0.06 0.07 0.09 0.18 0.40 0.44 0.77 0.97 0.94 0.91 0.75 0.65 0.72 0.73 0.75 0.79 1.05 1.29 1.31 1.37 1.45 1.33 1.20 1.03 0.87 0.77 0.74 0.77 0.84 1.00 1.28 1.48 1.63 1.67 1.67 1.56 1.40
0.03 0.04 0.04 0.05 0.05 0.06 0.05 0.04 0.06 0.09 0.14 0.27 0.37 0.59 0.93 1.06 1.19 0.82 0.63 0.64 0.58 0.63 0.76 0.89 0.89 0.82 0.85 0.85 0.79 0.70 0.67 0.65 0.63 0.63 0.72 0.73 0.66 0.70 0.70 0.77 0.92 1.06 1.18 1.13
0.04 0.05 0.05 0.04 0.04 0.05 0.06 0.09 0.15 0.23 0.34 0.54 0.49 0.53 0.79 0.90 0.93 0.61 0.51 0.60 0.51 0.47 0.54 0.62 0.62 0.57 0.54 0.54 0.53 0.57 0.60 0.66 0.64 0.66 0.68 0.67 0.63 0.67 0.65 0.66 0.69 0.66 0.69 0.71
0.15 0.13 0.09 0.05 0.06 0.07 0.08 0.14 0.45 0.78 1.06 1.05 0.56 0.54 0.70 0.61 0.59 0.59 0.51 0.51 0.48 0.39 0.38 0.34 0.34 0.33 0.33 0.31 0.29 0.38 0.42 0.47 0.46 0.48 0.52 0.55 0.62 0.63 0.58 0.52 0.49 0.47 0.46 0.49
0.18 0.22 0.13 0.08 0.07 0.06 0.07 0.11 0.30 0.50 0.65 0.73 0.53 0.74 0.76 0.54 0.51 0.45 0.35 0.30 0.33 0.24 0.20 0.17 0.16 0.15 0.19 0.20 0.19 0.21 0.26 0.26 0.29 0.34 0.43 0.55 0.71 0.75 0.71 0.69 0.56 0.51 0.50 0.48
0.07 0.10 0.09 0.08 0.07 0.08 0.08 0.07 0.10 0.15 0.26 0.45 0.59 0.72 0.62 0.43 0.45 0.36 0.24 0.17 0.16 0.13 0.09 0.09 0.10 0.10 0.10 0.11 0.11 0.13 0.15 0.18 0.24 0.30 0.37 0.41 0.45 0.52 0.53 0.54 0.53 0.50 0.57 0.52
0.04 0.04 0.06 0.07 0.08 0.09 0.08 0.07 0.07 0.09 0.20 0.32 0.52 0.74 0.69 0.51 0.47 0.37 0.24 0.14 0.09 0.07 0.05 0.04 0.04 0.04 0.05 0.07 0.11 0.14 0.14 0.19 0.31 0.44 0.49 0.38 0.31 0.29 0.36 0.45 0.51 0.53 0.57 0.58
0.04 0.03 0.05 0.07 0.09 0.12 0.12 0.10 0.08 0.10 0.11 0.20 0.39 0.52 0.40 0.32 0.29 0.26 0.18 0.12 0.10 0.07 0.04 0.02 0.02 0.03 0.06 0.08 0.12 0.23 0.29 0.36 0.47 0.61 0.68 0.58 0.41 0.33 0.34 0.37 0.37 0.40 0.48 0.58
0.04 0.03 0.05 0.09 0.13 0.13 0.12 0.11 0.11 0.15 0.13 0.13 0.19 0.29 0.18 0.15 0.13 0.10 0.08 0.06 0.04 0.02 0.01 0.01 0.01 0.02 0.04 0.06 0.15 0.39 0.65 0.92 0.99 1.06 1.13 0.98 0.60 0.39 0.31 0.26 0.25 0.32 0.44 0.55
0.03 0.04 0.09 0.23 0.26 0.19 0.13 0.09 0.10 0.11 0.10 0.11 0.23 0.31 0.17 0.09 0.08 0.06 0.04 0.02 0.01 0.01 0.01 0.01 0.01 0.01 0.02 0.03 0.10 0.24 0.33 0.58 0.81 0.98 1.07 0.86 0.47 0.28 0.22 0.20 0.24 0.38 0.50 0.54
0.04 0.04 0.06 0.18 0.24 0.22 0.18 0.13 0.10 0.08 0.10 0.13 0.18 0.31 0.23 0.12 0.06 0.03 0.02 0.02 0.01 0.01 0.01 0.01 0.01 0.02 0.02 0.03 0.04 0.15 0.20 0.21 0.31 0.56 0.71 0.57 0.34 0.24 0.20 0.20 0.25 0.31 0.34 0.40
0.04 0.03 0.02 0.03 0.07 0.11 0.12 0.13 0.11 0.08 0.07 0.17 0.17 0.20 0.19 0.15 0.07 0.03 0.03 0.02 0.02 0.02 0.02 0.02 0.02 0.03 0.03 0.03 0.05 0.11 0.16 0.17 0.24 0.45 0.56 0.45 0.29 0.23 0.17 0.15 0.17 0.21 0.29 0.34
0.04 0.04 0.04 0.04 0.06 0.06 0.09 0.13 0.11 0.06 0.04 0.04 0.06 0.11 0.10 0.10 0.07 0.05 0.06 0.05 0.04 0.03 0.03 0.03 0.03 0.03 0.03 0.04 0.04 0.05 0.08 0.13 0.22 0.38 0.50 0.45 0.36 0.25 0.17 0.14 0.17 0.25 0.31 0.36
0.08 0.05 0.05 0.06 0.07 0.06 0.14 0.14 0.09 0.06 0.05 0.06 0.09 0.10 0.06 0.06 0.06 0.08 0.12 0.10 0.06 0.04 0.03 0.03 0.02 0.02 0.03 0.05 0.07 0.08 0.08 0.11 0.24 0.39 0.49 0.50 0.46 0.37 0.30 0.22 0.24 0.31 0.36 0.40
0.15 0.13 0.09 0.07 0.08 0.15 0.13 0.09 0.08 0.08 0.07 0.09 0.10 0.08 0.08 0.09 0.09 0.10 0.10 0.08 0.05 0.04 0.04 0.03 0.03 0.03 0.04 0.04 0.07 0.08 0.09 0.13 0.22 0.34 0.46 0.53 0.52 0.49 0.49 0.41 0.40 0.44 0.47 0.50
0.18 0.18 0.13 0.09 0.11 0.14 0.14 0.12 0.13 0.12 0.10 0.10 0.11 0.10 0.11 0.11 0.10 0.11 0.10 0.08 0.07 0.07 0.06 0.06 0.06 0.06 0.07 0.08 0.09 0.11 0.13 0.19 0.24 0.31 0.45 0.55 0.56 0.57 0.56 0.56 0.57 0.60 0.65 0.61
0.17 0.19 0.17 0.14 0.20 0.22 0.20 0.21 0.19 0.19 0.27 0.18 0.14 0.12 0.10 0.12 0.21 0.18 0.14 0.13 0.10 0.08 0.08 0.08 0.07 0.07 0.09 0.09 0.11 0.14 0.18 0.29 0.41 0.45 0.50 0.62 0.72 0.79 0.79 0.77 0.74 0.75 0.86 0.81
0.26 0.25 0.22 0.23 0.30 0.26 0.20 0.21 0.16 0.33 0.43 0.27 0.21 0.17 0.17 0.23 0.29 0.24 0.18 0.15 0.13 0.10 0.08 0.08 0.08 0.08 0.10 0.12 0.16 0.23 0.30 0.37 0.44 0.52 0.59 0.72 0.90 0.97 0.95 0.98 0.95 0.93 0.95 0.97
0.27 0.30 0.31 0.33 0.44 0.45 0.25 0.23 0.32 0.39 0.30 0.30 0.26 0.21 0.22 0.23 0.22 0.19 0.18 0.14 0.11 0.09 0.09 0.10 0.11 0.10 0.13 0.18 0.28 0.41 0.50 0.51 0.54 0.63 0.77 0.91 1.03 0.89 0.83 1.05 1.09 1.12 1.19 1.16
0.28 0.31 0.36 0.44 0.52 0.40 0.28 0.31 0.35 0.34 0.34 0.31 0.26 0.22 0.19 0.19 0.19 0.16 0.15 0.14 0.12 0.10 0.10 0.12 0.15 0.18 0.20 0.28 0.45 0.62 0.64 0.65 0.65 0.70 0.81 0.91 0.98 1.02 1.07 1.15 1.16 1.20 1.25 1.26
0.26 0.23 0.30 0.43 0.45 0.39 0.35 0.33 0.26 0.21 0.21 0.20 0.18 0.15 0.12 0.13 0.14 0.14 0.15 0.14 0.13 0.11 0.11 0.14 0.20 0.29 0.37 0.48 0.60 0.70 0.72 0.72 0.71 0.72 0.73 0.79 0.92 1.03 1.14 1.29 1.33 1.33 1.30 1.30
0.21 0.19 0.26 0.42 0.49 0.44 0.39 0.33 0.21 0.16 0.11 0.10 0.10 0.09 0.10 0.12 0.14 0.14 0.13 0.13 0.13 0.13 0.17 0.22 0.28 0.36 0.45 0.57 0.68 0.69 0.73 0.81 0.85 0.84 0.84 0.85 0.94 1.10 1.20 1.30 1.36 1.34 1.36 1.21
0.17 0.24 0.29 0.40 0.35 0.33 0.32 0.22 0.14 0.13 0.13 0.12 0.12 0.12 0.12 0.13 0.14 0.13 0.13 0.13 0.12 0.13 0.17 0.27 0.36 0.44 0.52 0.63 0.76 0.82 0.90 0.99 1.06 1.03 0.97 0.96 1.02 1.15 1.25 1.31 1.26 1.06 0.98 0.79